Regional Weather Roundup
Issued by NWS

Home | Current Version | Previous Version | Text Only | Print | Product List | Glossary Off
Versions: 1 2 3 4 5 6 7 8 9 10 11 12 13 14 15 16 17 18 19 20 21 22 23 24 25 26 27 28 29 30 31 32 33 34 35 36 37 38 39 40 41 42 43 44 45 46 47 48 49 50

000
ASUS45 KTFX 212219
RWRMT
MONTANA HOURLY WEATHER ROUNDUP
NATIONAL WEATHER SERVICE GREAT FALLS MT
419 PM MDT THU AUG 21 2014

NOTE: "FAIR" INDICATES FEW OR NO CLOUDS BELOW 12000 FEET WITH NO
SIGNIFICANT WEATHER AND/OR OBSTRUCTIONS TO VISIBILITY.

* THESE STATIONS ARE NOT UNDER NWS QUALITY CONTROL. THEY DO NOT
   REPORT WEATHER SUCH AS PRECIPITATION OR FOG.

MTZ001>007-043-212300-
WEST OF THE DIVIDE
CITY           SKY/WX    TMP DP  RH WIND       PRES   REMARKS
KALISPELL      CLOUDY    66  50  56 NE17      30.05F
MISSOULA       CLOUDY    73  50  44 N20G29    29.98F
BUTTE          PTSUNNY   59  52  78 S12       30.10F
MULLAN PASS    CLOUDY    57  52  83 VRB3      30.11S
* ESSEX        N/A       57  45  64 SE1        N/A
* LINCOLN      N/A       68  50  53 NE11G18    N/A
* LOOKOUT PASS N/A       61  53  75 S4         N/A
* POLSON       N/A       69  54  59 N4G9       N/A
* RONAN APT    PTCLDY    70  54  57 N11G16     N/A
* SEELEY LAKE  N/A       72  48  43 N5G11      N/A
* THOMP F APT  PTSUNNY   73  50  44 NE10       N/A
* YAAK HILL    N/A       78  45  31 NE2        N/A
$$

MTZ008-052>055-212300-
SOUTHWEST MONTANA
CITY           SKY/WX    TMP DP  RH WIND       PRES   REMARKS
BOZEMAN        PTCLDY    66  48  52 SE3       30.08F
DILLON         PTCLDY    72  46  40 N8        30.03F
W YELLOWSTONE  CLOUDY    61  45  56 SW14      30.14F
* THREE FORKS  SUNNY     68  68 100 N/A        N/A
* BOULDER HILL N/A       58  44  60 N3         N/A
* MONIDA PASS  N/A       58  46  65 S9         N/A
* RAYNOLDS PAS N/A       63  20  19 NE6        N/A
* WHITEHALL    N/A       69  51  53 E7G14      N/A
* WISE RIVER   N/A       65  43  45 E11G17     N/A
$$

MTZ009>010-012-014-046-048-049-054-212300-
EAST SLOPES AND CENTRAL MONTANA
CITY           SKY/WX    TMP DP  RH WIND       PRES   REMARKS
CUT BANK       CLOUDY    57  48  72 N18       30.15S
GREAT FALLS    CLOUDY    66  48  52 N7        30.09S
HELENA         PTCLDY    72  46  40 CALM      30.04F
MALMSTROM AFB  PTSUNNY   64  50  61 VRB7G14   30.10F
* CONRAD       PTSUNNY   55  55 100 NW9        N/A
* DEARBORN     N/A       63  50  63 VRB8       N/A
* EAST GLACIER N/A       50  44  80 E9         N/A
* MONARCH      N/A       53  45  74 NW8        N/A
* PENDROY      N/A       52  51  96 VRB11G16    N/A
* ROGERS PASS  N/A       52  48  86 S4         N/A
* SAINT MARY   N/A       50  48  93 N5G11      N/A
* SWEET GRASS  N/A       52  52 100 N17        N/A
* WHITE SULPH  N/A       66  52  61 W3G9       N/A
$$

MTZ011-013-016-021-035-040-045-047-050-051-212300-
NORTH CENTRAL MONTANA
CITY           SKY/WX    TMP DP  RH WIND       PRES   REMARKS
HAVRE          PTSUNNY   68  54  61 NW14      30.04S
LEWISTOWN      LGT RAIN  63  54  73 NW10      30.10S
* FORT BENTON  PTCLDY    63  55  75 NW9       30.08R
* CHESTER      N/A       63  49  60 NE12G18    N/A
* DENTON       N/A       60  55  84 NW4        N/A
* GEYSER       N/A       61  47  60 W11        N/A
* JUDITH GAP   N/A       55  54  96 NW8        N/A
* LOMA         N/A       65  54  68 W8         N/A
$$

MTZ017>020-022>027-061-062-212300-
NORTHEAST MONTANA
CITY           SKY/WX    TMP DP  RH WIND       PRES   REMARKS
GLASGOW        CLOUDY    64  59  84 SE7       29.99R
GLENDIVE       PTCLDY    70  61  73 NE10      29.99S
JORDAN         CLOUDY    73  54  51 N9        29.99S
SIDNEY         PTSUNNY   72  63  73 NE5       29.98S
WOLF POINT     PTSUNNY   73  59  62 VRB5      29.96F
* BEAVER HILL  N/A       68  59  73 NE8G15     N/A
* CIRCLE       N/A       72  59  64 E7         N/A
* LINDSAY DVD  N/A       74  55  52 VRB9       N/A
* SACO         N/A       61  59  93 NW15       N/A
$$

MTZ028>042-056>058-212300-
SOUTHCENTRAL AND SOUTHEAST MONTANA
CITY           SKY/WX    TMP DP  RH WIND       PRES   REMARKS
BAKER          PTSUNNY   79  55  44 NW12      29.99S
BILLINGS       LGT RAIN  61  57  87 N9        30.07R
LIVINGSTON     CLOUDY    66  52  61 VRB6      30.09F
MILES CITY     PTSUNNY   75  54  48 NW9       29.97S
* LAUREL APT   CLOUDY    61  55  81 N6         N/A
* ROUNDUP APT  CLOUDY    61  55  81 N/A        N/A
* ALZADA       N/A       80  50  35 N/A        N/A
* HYSHAM       N/A       60  56  87 NW9G18     N/A
* REED POINT   N/A       60  57  90 NW1        N/A
* ROSCOE HILL  N/A       54  51  90 NW11G21    N/A
$$

REGIONAL REPORTS...DAKOTAS
CITY           SKY/WX    TMP DP  RH WIND       PRES   REMARKS
WILLISTON      CLOUDY    73  57  57 N7        29.96S
DICKINSON      PTCLDY    79  59  50 NW7       29.94R
BEACH          N/A       72  63  73 NE13G18   29.99S
CROSBY         PTCLDY    72  59  64 N8        29.97F
TIOGA          PTSUNNY   73  59  62 N12G18    29.99R
WATFORD CITY   SUNNY     72  57  59 N5        29.95S
BISMARCK       SUNNY     82  63  53 NW12      29.89R HI  83
GRAND FORKS    PTSUNNY   79  68  69 CALM      29.80R
FARGO          LGT RAIN  73  70  90 NE6       29.81R
BUFFALO SD     PTCLDY    81  55  41 NE6       29.90S HI  81
RAPID CITY     PTCLDY    79  57  47 NE5       29.95F
$$

REGIONAL REPORTS...WYOMING/IDAHO/WASHINGTON
CITY           SKY/WX    TMP DP  RH WIND       PRES   REMARKS
GILLETTE       PTSUNNY   79  48  34 SE3       29.99S
SHERIDAN       PTSUNNY   64  57  78 NW16G22   30.04R
CODY           PTSUNNY  N/A N/A N/A W8        30.07S
YELLOWSTONE LA PTSUNNY   54  43  67 CALM      30.25F
SALMON         TSTM      68  55  63 N6        29.96F
MULLAN PASS    CLOUDY    57  52  83 VRB3      30.11S
SAND POINT     PTCLDY    77  52  42 N5        29.94F
SPOKANE        PTSUNNY   77  48  36 CALM      29.94F
$$

REGIONAL REPORTS...ALBERTA
CITY           SKY/WX    TMP DP  RH WIND       PRES   REMARKS
CALGARY        CLOUDY    55  43  64 NE8       30.20S
LETHBRIDGE     CLOUDY    55  50  83 N8        30.18S
MEDICINE HAT   CLOUDY    59  54  84 NE9       30.13S
EDMONTON       PTSUNNY   59  39  48 N13       30.20S
WATERTON GATE  N/A       50  48  93 NE5        N/A
CARDSTON       N/A       52  50  93 NE7        N/A
MILK RIVER     N/A       54  52  93 N16G22     N/A
$$

REGIONAL REPORTS...SASKATCHEWAN
CITY           SKY/WX    TMP DP  RH WIND       PRES   REMARKS
SWIFT CURRENT  LGT RAIN  59  57  93 N12       30.08R
MOOSE JAW      CLOUDY    68  57  68 N10       30.04R
REGINA         PTSUNNY   66  57  73 N14       30.02R
VAL MARIE      N/A       66  55  68 NE9        N/A
ASSINIBOIA     N/A       68  52  57 NE13       N/A
CORONACH       N/A       70  54  57 N12        N/A

$$



USA.gov is the U.S. government's official web portal to all federal, state and local government web resources and services.